Theta_e
350 351 351 352 351 352 351 350 350 351 352 352 351 351 352 352 352 351 350 350 351 353 353 353 354 354 355 354 354 354 353 352 349 349 350 351 352 350 351 351 351 352 352 351 350 350 351 352 352 352 354 354 354 353 352 352 350 350 351 351 351 352 351 351 351 351 350 350 350 351 351 352 353 353 352 353 353 352 351 349 349 350 349 346 344
350 351 352 352 351 352 351 350 350 352 353 352 350 350 351 351 352 350 350 350 351 352 353 353 354 354 354 354 353 353 352 351 350 350 349 350 350 349 350 350 351 351 351 349 349 350 351 351 351 353 353 353 354 353 352 351 350 350 351 351 351 352 352 352 351 350 350 351 351 352 352 352 352 352 352 352 352 351 349 349 350 352 350 347 346
351 351 351 351 351 351 351 351 350 351 352 352 350 350 351 351 351 350 351 351 352 352 353 354 353 353 353 354 354 353 351 351 351 350 350 350 350 349 349 349 351 351 350 350 350 351 351 351 352 352 352 353 353 353 351 351 351 350 351 351 352 352 352 352 351 350 351 352 351 352 351 350 350 350 351 351 350 350 349 348 351 352 350 349 349
351 351 350 351 351 352 351 351 350 349 350 350 350 350 351 351 350 350 350 351 352 351 352 353 352 353 353 353 354 353 351 352 352 352 351 350 351 350 348 350 352 352 350 351 351 351 350 351 351 353 353 353 352 351 351 351 352 350 350 351 351 353 352 352 351 350 350 351 351 351 351 350 350 349 350 350 350 350 349 348 349 350 349 350 350
351 351 351 351 351 352 351 350 349 348 348 349 350 350 350 350 350 350 350 351 352 351 350 352 352 353 353 353 354 354 353 353 353 352 353 352 352 351 349 350 352 352 351 352 351 351 350 351 352 354 354 352 350 350 350 351 351 349 350 350 351 352 351 351 351 350 349 349 349 351 353 352 351 351 351 350 350 350 349 349 349 350 350 350 350
352 352 351 352 351 352 351 350 349 349 349 348 348 348 348 349 351 351 351 352 352 351 351 351 352 352 352 352 353 354 354 353 352 352 352 352 353 351 350 349 349 350 352 352 352 350 349 350 352 353 353 352 350 349 350 350 349 350 351 350 349 350 351 351 349 348 346 347 349 351 353 353 352 352 352 350 350 351 351 350 350 350 350 349 349
352 351 352 352 351 350 350 350 349 348 348 348 348 347 347 348 351 352 352 353 352 351 351 352 352 351 351 352 352 352 353 353 352 352 351 351 351 350 349 349 348 349 351 352 352 351 350 350 351 353 353 352 351 350 350 348 347 346 345 345 344 344 346 348 348 347 346 348 351 352 352 353 352 352 351 351 351 351 351 350 351 351 350 349 349
351 351 351 352 351 350 351 351 349 348 348 349 348 348 347 347 349 350 351 352 352 352 352 353 352 351 351 351 351 351 351 351 351 351 350 350 350 349 349 349 348 349 351 351 352 352 352 351 352 353 353 353 352 352 351 347 343 341 341 343 341 339 339 341 343 344 345 348 350 351 351 351 352 352 351 351 351 350 350 349 349 349 350 349 347
352 351 351 352 352 352 352 352 352 350 350 349 348 347 347 348 349 349 351 351 352 353 353 352 351 351 351 350 350 350 349 350 350 349 350 351 350 350 349 348 348 350 351 350 351 352 353 353 352 352 353 354 353 352 350 347 344 343 345 345 344 341 338 336 335 337 340 343 345 347 350 352 351 350 351 350 349 348 347 348 348 347 349 347 346
352 352 351 352 352 352 353 353 352 350 348 348 347 346 346 348 349 349 351 351 352 353 353 352 351 350 350 349 349 350 349 348 348 347 350 351 351 351 349 349 349 349 350 350 351 352 352 352 352 351 351 352 353 352 349 349 347 347 349 348 346 342 340 338 335 335 336 338 340 343 344 346 350 350 348 346 343 342 341 342 344 343 343 342 341
351 351 351 352 352 352 352 352 350 348 347 347 347 347 347 348 349 351 351 351 352 352 352 352 350 350 350 349 350 351 348 348 348 347 350 351 351 350 349 349 349 349 351 350 350 351 351 351 351 351 352 351 351 351 349 348 349 349 349 348 347 343 342 341 340 339 335 336 340 344 341 340 349 348 344 345 343 343 343 343 342 340 340 338 339
351 351 351 352 351 351 351 351 351 349 347 348 348 347 348 348 348 350 351 351 352 351 352 352 351 351 351 350 351 351 346 348 349 347 349 351 349 348 348 349 349 349 350 351 350 349 348 349 351 352 352 351 351 352 350 349 350 351 349 347 346 344 343 342 343 340 337 338 339 344 346 344 349 347 344 345 346 347 348 348 347 345 345 344 344
351 351 351 352 352 351 350 350 351 349 348 348 349 348 348 347 347 349 350 351 351 351 351 352 353 351 349 349 351 351 345 346 349 348 348 348 348 348 348 347 348 348 349 351 351 349 349 350 351 352 352 352 352 351 350 350 351 351 350 347 346 345 344 344 344 342 339 339 336 340 346 347 349 349 347 346 346 349 349 349 348 347 347 348 347
351 351 350 351 351 351 350 351 351 349 348 349 349 349 349 348 347 347 349 351 351 351 352 352 353 351 348 348 350 351 346 345 349 349 348 347 347 348 348 346 346 348 349 350 351 351 350 351 351 351 351 351 351 350 350 350 350 350 348 348 346 345 345 345 345 344 342 339 337 338 343 347 348 348 349 348 347 349 348 348 348 348 348 347 347
350 351 350 350 350 350 350 351 351 350 347 347 349 349 349 349 347 346 348 350 352 352 352 352 352 352 350 349 350 352 349 346 348 349 347 345 344 345 347 346 347 348 349 351 352 351 351 351 350 348 348 348 349 348 348 347 348 348 347 347 347 346 346 347 348 346 346 345 342 339 343 346 346 346 348 348 347 348 349 349 348 348 347 346 346
348 349 350 349 350 350 350 351 351 351 348 346 348 350 349 348 348 347 348 350 351 352 352 351 351 351 351 350 351 351 351 350 350 348 347 344 341 341 343 344 345 346 348 348 348 348 349 348 346 345 345 346 347 347 347 346 346 346 346 347 347 348 347 349 350 348 349 349 347 343 346 346 343 345 347 347 347 347 347 347 347 346 346 346 346
346 348 349 349 350 351 350 350 351 351 350 347 347 349 348 347 348 347 348 349 350 351 352 350 350 351 349 351 351 350 351 351 350 350 349 347 344 339 338 342 345 344 343 342 341 343 345 345 343 343 343 344 345 345 345 345 344 345 346 346 347 349 348 350 351 350 349 348 349 347 347 346 341 341 344 348 348 347 346 345 345 345 345 345 345
345 346 348 349 350 351 349 349 350 351 351 349 347 347 347 348 347 347 347 348 349 350 350 350 351 350 349 351 352 351 351 350 349 349 350 350 349 344 341 344 345 342 339 338 337 338 340 340 339 340 340 341 343 343 343 343 344 344 345 345 345 348 348 350 353 352 349 346 349 349 347 344 339 338 340 345 348 346 346 345 345 345 344 344 344
344 344 348 350 350 350 349 348 349 350 350 349 348 346 347 348 347 347 347 348 348 347 348 349 350 350 350 351 351 350 350 350 349 348 349 351 351 349 347 345 343 342 341 340 339 338 337 336 335 335 337 339 341 342 342 342 343 344 345 344 343 346 349 352 354 352 351 349 349 350 348 344 340 339 337 341 346 346 346 345 345 345 345 344 343
346 347 350 350 349 349 349 349 349 350 350 349 349 348 346 346 348 347 348 348 347 347 347 348 349 348 350 351 348 348 349 350 351 350 350 350 350 349 348 344 343 343 343 342 341 339 338 338 336 335 335 336 338 340 341 342 344 343 343 343 341 345 352 354 353 352 352 351 349 348 348 345 342 340 336 339 346 346 345 345 345 346 345 343 343
349 349 350 350 348 348 349 349 349 349 349 349 349 349 347 345 348 348 348 348 347 347 347 347 349 349 350 350 347 346 348 350 352 350 349 349 348 347 344 342 342 342 342 342 341 340 339 340 339 337 335 334 335 337 339 340 342 342 342 341 342 349 353 353 352 351 352 351 350 348 345 345 343 339 334 338 346 346 344 345 345 346 344 342 345
350 350 350 350 349 348 349 349 349 349 349 349 348 349 348 346 349 348 347 347 347 347 347 346 349 350 350 349 347 346 347 349 350 349 348 347 346 345 343 341 340 340 340 341 340 340 339 339 339 338 338 337 336 339 341 340 340 339 340 340 345 349 349 349 351 351 351 351 350 346 343 345 342 337 333 338 345 344 344 346 346 344 343 343 346
350 350 350 350 349 349 349 349 349 349 348 348 349 349 347 346 347 348 347 347 347 348 347 346 348 349 349 348 347 347 347 348 348 347 348 348 346 344 342 339 339 339 339 340 339 339 339 339 340 339 340 340 340 342 344 344 343 341 342 344 346 347 346 347 350 350 350 349 347 343 341 342 338 334 333 338 342 342 344 346 346 346 346 347 348
350 350 350 350 350 350 349 349 348 348 348 347 348 349 347 347 347 348 347 346 346 347 346 346 347 348 348 348 347 347 347 349 348 345 346 346 344 342 340 338 338 338 338 339 339 338 339 339 340 340 341 342 343 344 345 347 346 346 347 348 348 347 347 348 349 349 346 343 341 339 338 337 335 334 335 337 340 342 344 345 346 348 348 349 349
350 350 350 350 350 349 349 349 348 348 348 347 348 349 349 348 348 348 347 346 346 347 346 346 347 348 348 348 348 347 346 347 345 343 342 341 341 339 338 338 337 337 337 338 339 340 342 343 344 345 345 346 347 347 348 348 348 349 349 348 349 348 348 348 347 344 340 337 337 336 336 335 335 336 336 338 340 342 344 346 347 347 346 347 348
350 350 350 349 349 349 349 348 348 348 347 347 348 349 349 349 348 347 347 347 347 346 346 347 348 348 348 348 347 346 345 345 344 341 340 337 337 337 337 337 336 337 339 341 344 345 347 348 348 348 348 349 348 348 347 347 348 349 348 347 347 346 346 347 342 337 335 335 335 334 335 336 337 337 338 339 341 343 344 346 348 347 346 347 348
350 349 349 349 349 349 348 348 348 347 347 347 347 348 349 348 348 348 348 347 347 347 348 348 347 347 347 346 346 346 346 346 343 338 336 336 336 336 336 337 337 340 344 347 348 349 349 348 348 347 347 348 347 347 346 346 346 347 348 346 345 345 345 343 337 333 333 334 335 336 336 337 338 338 339 340 341 343 344 345 346 346 347 347 349
350 349 349 349 349 349 348 348 348 347 347 347 347 348 347 348 348 348 348 348 349 350 349 347 345 345 345 344 345 346 347 346 342 336 335 335 336 336 337 338 342 346 348 348 349 350 349 348 347 347 345 345 346 345 345 345 345 345 346 345 343 344 342 337 332 332 334 335 336 337 338 339 340 340 341 342 343 344 344 345 346 346 347 347 348
349 349 349 349 349 349 348 347 347 347 347 347 347 348 347 348 348 348 348 348 349 349 348 346 345 345 344 341 342 345 346 345 340 336 336 337 338 338 340 343 346 348 348 349 351 350 349 348 347 346 344 344 344 344 344 344 344 344 345 345 344 343 338 333 332 334 335 337 338 339 340 340 341 342 343 343 344 344 345 345 346 347 347 347 347
349 349 348 348 349 348 348 347 347 347 346 347 347 348 348 348 348 348 348 347 348 347 346 346 346 346 344 340 340 342 345 345 340 337 339 340 341 343 345 347 347 348 349 351 351 349 349 347 347 345 344 343 343 343 342 343 345 345 344 345 345 343 338 334 334 336 337 338 340 340 341 341 342 342 343 343 344 344 345 345 345 346 346 346 346
349 348 348 349 349 348 347 347 347 347 346 347 348 348 348 349 349 348 348 347 347 346 346 347 346 345 342 339 341 342 344 345 342 341 343 343 344 346 347 347 348 349 351 351 350 349 348 347 346 345 344 344 343 342 341 343 345 345 345 345 344 343 340 337 338 339 339 340 340 341 341 341 341 341 342 342 342 343 343 344 344 344 344 344 344
349 348 349 348 349 348 347 347 347 347 346 347 348 348 349 349 348 347 346 345 345 345 347 346 344 343 341 342 344 345 345 345 344 344 345 345 346 347 347 348 349 351 351 350 350 349 348 347 346 346 345 344 343 342 340 342 344 344 344 345 343 343 342 339 340 341 339 340 340 340 341 340 341 341 341 341 342 342 342 342 343 343 343 343 343
349 349 349 349 349 348 347 347 347 347 347 347 348 348 349 349 348 347 345 344 345 346 346 345 343 342 344 345 346 345 345 345 345 346 346 346 346 347 349 350 350 350 350 349 349 349 347 347 346 346 346 344 343 342 341 341 343 342 342 343 342 343 342 340 341 341 340 341 341 340 340 340 340 340 340 340 341 341 341 341 341 342 342 342 343
350 349 349 349 348 348 348 347 347 347 347 347 348 348 348 348 348 347 344 343 345 345 346 345 344 345 346 346 346 346 346 345 346 346 346 346 347 348 350 350 349 349 350 349 349 348 347 346 346 346 346 344 342 343 343 344 342 342 343 343 342 341 340 341 342 340 340 341 341 340 340 339 339 340 339 339 339 339 340 340 340 340 340 341 341
350 349 349 349 349 348 348 348 348 347 347 347 347 348 348 348 347 346 343 343 344 346 347 347 347 346 346 345 346 346 346 346 347 347 346 346 348 350 350 350 349 349 349 349 348 348 347 347 346 346 346 345 343 342 344 344 343 343 342 341 343 342 340 342 342 341 342 341 340 339 339 340 339 339 339 339 339 339 338 338 339 339 339 339 339
351 350 350 349 349 348 349 349 348 348 348 348 348 348 348 346 344 343 343 343 344 346 348 348 348 348 347 346 345 346 346 347 347 347 346 347 349 350 350 349 349 350 349 349 348 347 347 348 347 346 345 345 344 343 343 342 342 343 341 341 342 341 341 342 342 343 343 341 340 340 340 339 339 339 339 339 338 338 339 339 339 339 338 338 340
351 351 350 349 349 349 349 349 349 348 348 348 348 347 345 342 341 343 344 343 346 348 348 348 350 350 348 345 345 346 347 348 347 347 347 347 349 350 351 350 349 350 349 350 350 348 348 348 348 346 344 343 343 345 344 342 343 343 342 342 342 341 341 342 342 342 341 339 339 340 341 339 339 339 338 339 340 341 341 340 340 339 339 340 342
352 351 351 350 349 349 349 349 350 349 348 348 347 346 344 341 342 344 344 343 346 349 349 349 350 350 347 343 345 347 348 348 347 347 347 347 348 349 351 350 349 350 349 350 352 351 349 348 348 347 345 343 343 345 344 343 343 343 343 343 342 341 340 340 340 340 339 339 339 339 339 338 339 340 340 340 341 342 342 341 341 341 341 343 343
352 351 352 351 349 349 350 350 350 349 349 348 346 345 343 342 343 344 345 345 346 348 349 350 350 350 348 343 344 346 348 348 347 347 347 347 348 349 350 349 351 352 350 352 354 353 350 347 348 348 345 344 342 342 342 341 343 343 343 344 343 340 340 340 338 338 338 338 339 339 339 341 342 343 342 342 341 342 342 341 342 342 342 343 343
352 352 352 350 349 349 350 350 350 349 349 348 346 345 345 345 346 347 347 347 347 348 348 349 350 350 349 344 344 346 348 349 348 347 347 348 349 350 350 349 351 352 351 353 354 353 350 347 348 347 348 349 345 343 342 341 344 343 341 342 342 340 339 338 338 340 340 340 340 341 343 345 346 345 344 343 343 344 343 342 342 343 343 343 343
353 352 351 351 349 350 351 351 350 348 348 348 347 347 348 348 348 349 348 349 348 348 349 349 350 351 349 346 346 347 349 350 350 348 347 348 349 350 350 349 351 352 351 351 352 351 349 347 347 347 349 352 350 348 344 342 345 344 343 343 342 341 340 339 341 343 344 345 345 345 347 348 348 347 346 345 344 345 346 345 343 343 343 343 343
353 352 352 351 350 349 351 351 349 346 346 347 346 346 347 348 349 349 349 349 348 348 349 349 350 351 350 348 348 349 350 351 351 349 347 348 349 350 349 349 351 352 351 351 350 350 349 347 348 348 349 351 351 350 344 343 347 346 345 344 344 344 343 344 345 346 346 347 348 349 349 348 348 348 348 347 346 346 347 346 344 344 345 344 344
353 352 352 351 350 350 350 350 347 345 345 344 343 344 344 345 347 348 348 349 349 348 348 348 348 351 352 350 350 350 351 352 352 350 349 349 348 349 350 350 350 351 352 351 351 351 350 349 350 349 349 350 352 351 347 345 348 349 348 346 347 347 347 347 348 347 347 347 348 349 349 348 348 349 349 350 349 347 347 347 346 346 345 344 344
353 352 352 351 351 350 348 347 346 344 343 342 342 344 344 345 346 346 347 348 348 347 347 347 347 351 354 352 351 350 351 353 353 352 352 350 348 349 350 351 351 351 352 352 352 353 352 352 352 351 351 350 351 353 351 350 349 349 350 350 350 349 348 348 349 349 348 348 349 349 349 349 349 350 350 351 350 349 349 350 349 347 346 345 345
353 352 351 351 351 350 347 345 345 345 344 343 343 344 346 346 346 347 347 348 349 348 348 349 349 351 353 353 353 350 350 353 354 353 354 352 349 350 351 352 353 352 352 354 354 354 353 352 352 352 353 352 351 353 354 354 352 350 351 352 351 350 349 348 350 351 349 348 349 348 349 349 349 351 352 352 352 351 352 351 349 347 347 347 347
353 352 351 350 351 351 348 346 346 346 345 346 345 346 347 347 347 349 350 350 351 350 350 350 350 351 353 354 354 351 350 352 353 353 355 354 352 352 353 353 354 353 353 354 354 354 353 354 352 353 355 353 352 353 353 355 355 353 352 353 352 351 351 351 352 353 352 350 349 348 349 350 350 351 352 352 352 353 353 352 349 350 349 348 348
353 352 351 350 351 351 349 347 346 346 346 346 347 347 347 347 348 350 351 351 351 350 347 347 349 351 352 354 354 352 350 352 354 352 352 354 354 354 353 353 354 354 354 354 355 354 355 354 352 352 355 352 353 355 353 353 355 356 355 355 355 354 352 352 352 352 353 353 352 350 350 350 351 351 351 352 352 353 354 352 351 352 350 348 348
353 353 351 350 351 350 347 347 347 346 346 346 347 347 347 348 348 349 350 349 350 350 346 345 346 347 349 352 354 354 351 351 353 351 350 352 354 355 354 353 353 353 354 355 356 355 355 354 351 350 352 352 354 356 355 354 355 355 356 356 356 356 355 354 353 352 353 353 352 353 352 352 352 351 352 352 353 354 355 354 352 352 351 350 350
353 353 352 351 351 349 346 347 347 346 347 346 346 347 347 347 347 348 348 347 348 349 348 346 345 344 347 350 351 353 354 352 353 351 349 350 352 354 354 352 353 354 355 356 357 356 354 354 352 352 353 354 354 356 357 357 356 355 357 357 357 356 356 355 354 354 354 353 352 352 352 353 353 353 353 353 353 354 354 353 352 351 352 351 350
353 352 352 351 351 350 348 347 348 347 347 347 347 347 347 347 346 347 347 346 346 347 347 347 346 345 348 350 349 351 354 354 354 351 348 348 349 351 353 354 355 356 357 357 357 356 355 354 354 354 353 354 355 355 358 359 358 357 357 359 359 357 357 356 356 355 355 354 353 352 353 353 352 353 354 353 353 354 354 354 354 353 353 353 353
353 352 352 352 351 351 349 348 349 348 348 347 347 347 347 346 346 346 347 346 345 346 347 348 348 347 349 352 352 351 353 354 355 353 349 350 349 349 353 356 356 356 356 357 357 357 356 356 356 354 352 353 354 356 358 358 359 359 357 358 359 357 358 357 356 357 356 356 354 353 354 354 353 354 354 353 354 354 354 354 354 354 354 355 356
Wind_Speed
14 14 13 11 10 10 9 10 10 9 9 9 9 9 9 9 9 9 10 11 12 13 12 11 10 11 12 14 15 16 17 16 14 15 16 15 14 14 14 13 12 14 14 13 12 11 11 11 12 13 13 14 15 16 17 17 18 18 17 17 17 17 17 18 18 17 17 17 16 15 14 14 14 13 13 13 13 13 13 13 14 14 13 13 13
14 15 13 12 11 10 10 10 9 9 9 9 9 9 9 8 9 9 10 12 14 13 11 11 10 11 12 13 15 16 16 15 14 16 17 14 13 14 13 13 14 14 14 13 12 12 12 13 14 14 13 14 15 16 17 17 17 17 17 18 17 17 16 16 17 17 16 16 16 15 14 13 13 13 13 12 12 12 12 13 14 13 13 12 12
15 16 14 13 12 11 10 9 9 9 8 9 9 9 8 8 8 9 11 13 14 13 11 10 10 11 11 13 15 16 16 15 15 16 16 15 14 14 13 14 15 14 14 14 13 13 13 14 14 14 14 14 15 16 17 16 16 16 17 17 17 17 16 16 15 16 15 15 15 15 14 14 14 14 13 12 12 12 12 13 13 12 12 12 11
16 18 16 14 12 12 11 10 10 9 8 9 9 9 8 8 9 9 11 13 13 12 11 10 11 12 12 13 15 15 15 16 16 16 15 15 14 14 14 14 14 15 16 15 13 12 13 14 14 14 13 13 15 16 16 16 16 16 16 16 16 15 15 15 15 14 15 15 15 14 13 13 13 13 13 12 12 12 12 12 12 12 12 11 11
16 17 16 14 13 12 11 11 10 9 9 9 9 8 8 9 9 10 11 12 12 12 12 11 11 11 12 13 14 14 15 16 16 16 15 15 14 13 13 14 14 15 16 15 13 12 12 14 14 13 13 13 14 15 15 15 16 16 15 15 15 14 14 14 13 14 15 15 15 13 12 13 13 12 12 12 11 11 11 11 11 11 11 10 10
15 16 16 15 14 13 12 12 11 9 8 8 8 8 8 8 9 11 10 11 12 13 12 11 10 11 12 13 13 13 14 16 15 15 15 15 14 12 13 14 14 15 16 16 15 13 12 13 14 13 13 14 14 15 15 15 16 16 15 15 14 14 13 13 12 13 15 15 14 12 12 12 12 11 10 10 11 10 10 10 10 10 9 9 9
14 15 16 16 15 15 13 12 12 10 8 7 8 9 8 8 9 10 10 11 12 13 12 10 10 11 13 12 12 12 13 15 15 14 15 16 14 12 12 14 15 15 16 15 16 15 13 12 13 12 12 13 14 14 14 14 14 15 15 14 13 13 13 13 12 12 13 13 11 11 11 11 12 11 10 10 9 9 9 9 9 8 8 8 8
14 15 16 16 15 14 13 12 12 10 9 7 7 8 8 9 10 10 10 11 12 12 13 11 11 12 13 12 12 11 13 14 14 14 15 16 14 12 11 13 15 15 14 14 15 15 14 13 13 12 12 12 13 13 12 13 13 14 14 13 12 12 12 12 11 10 10 9 9 10 10 10 10 10 9 9 9 8 8 8 7 7 7 7 7
14 15 15 16 15 14 14 13 13 12 11 9 8 7 8 9 9 10 10 10 12 12 12 13 12 12 13 12 11 11 12 13 12 13 15 17 15 13 12 11 13 14 13 13 14 14 14 14 13 13 12 11 11 11 11 11 11 12 12 11 11 12 12 11 10 9 8 8 8 8 9 9 9 8 8 8 7 7 7 7 6 5 6 5 6
14 14 14 14 15 14 13 13 13 12 11 10 8 7 7 9 8 9 10 10 11 11 12 12 12 11 12 13 11 10 11 13 12 12 15 16 16 14 13 12 12 12 12 13 14 13 13 14 13 13 12 11 10 10 10 10 10 10 10 9 9 10 10 10 9 8 7 7 7 7 7 8 8 7 7 6 6 6 6 6 5 5 5 4 5
13 13 13 13 14 12 12 12 12 11 10 10 8 7 7 8 7 7 9 9 10 11 12 12 13 11 11 12 12 10 9 12 13 12 14 15 16 14 13 13 13 13 11 12 12 12 12 13 13 12 11 11 10 9 10 10 9 8 8 8 7 8 9 9 9 7 7 6 6 6 5 6 7 6 6 6 6 5 5 4 4 4 4 4 4
12 13 12 12 12 11 11 11 11 10 10 10 8 7 7 7 7 7 7 8 9 11 11 11 12 11 11 12 12 11 9 11 13 11 12 14 16 15 14 13 13 14 13 12 11 11 11 12 12 11 10 10 9 9 9 8 8 8 8 7 7 7 8 8 8 7 7 6 5 5 4 5 5 5 5 5 5 5 4 4 4 3 3 3 3
11 11 11 11 11 11 11 11 11 9 9 10 9 7 7 7 7 6 6 7 8 10 11 11 11 11 11 11 12 11 9 10 12 11 10 13 15 15 14 13 14 15 14 14 12 11 10 9 10 9 8 9 8 8 8 7 7 7 6 6 6 6 7 7 8 7 7 5 4 4 3 4 4 4 4 4 4 4 3 2 2 2 2 2 2
11 10 10 10 10 10 10 10 11 8 8 10 10 8 7 7 7 7 6 6 7 9 10 11 10 10 11 11 12 12 11 10 12 10 9 10 12 15 15 14 15 15 14 13 12 11 10 8 8 8 8 8 8 8 7 6 5 5 5 5 4 4 5 6 5 5 6 5 4 3 2 2 2 3 3 2 3 2 1 1 1 1 1 1 1
11 10 10 10 9 10 10 11 11 8 6 8 10 9 6 7 8 7 7 6 8 8 9 10 10 10 11 10 11 13 13 13 12 10 10 9 10 14 15 14 14 13 13 12 10 9 9 8 7 7 7 7 7 6 5 4 4 4 4 4 5 4 4 3 2 2 2 2 2 2 1 1 1 3 2 1 1 1 1 1 1 1 2 2 2
10 10 9 9 9 10 10 10 11 10 6 5 9 9 7 6 8 8 8 6 7 9 8 9 10 10 10 10 9 12 13 14 13 12 12 12 9 9 12 14 13 12 11 9 8 8 7 6 6 6 6 5 5 4 4 3 3 2 3 4 5 4 4 3 1 1 0 1 1 1 1 1 2 3 3 1 1 1 2 2 2 3 4 4 4
9 9 8 8 8 9 9 9 11 11 9 6 6 8 7 7 8 9 9 7 7 9 8 9 11 9 9 9 9 11 12 12 12 14 16 16 11 7 10 12 11 10 9 8 7 7 6 5 5 5 4 4 4 3 3 2 2 1 1 3 4 5 6 5 3 2 2 2 2 1 1 1 2 2 3 3 4 4 4 4 4 4 4 5 6
9 9 8 8 7 8 8 10 11 12 12 9 7 7 8 7 7 8 8 7 7 8 8 9 11 9 8 8 9 10 11 11 10 12 16 17 14 10 9 9 8 8 7 7 7 6 6 5 4 4 4 3 3 3 3 2 2 2 1 2 4 5 7 6 4 4 4 4 3 3 2 2 3 2 3 4 5 5 5 5 5 5 5 6 7
9 9 8 7 7 8 8 9 10 10 12 12 9 7 9 9 8 7 7 6 7 8 9 9 11 10 8 7 9 9 10 11 9 10 13 14 14 13 11 9 8 7 6 6 6 6 6 5 4 3 3 3 3 3 4 4 4 3 3 4 5 6 6 5 4 5 6 5 4 4 4 4 4 4 4 4 5 5 5 5 6 7 7 7 7
7 7 7 7 8 7 7 8 8 9 10 13 12 8 8 10 9 8 6 6 6 7 8 8 10 11 9 7 8 8 9 11 10 10 10 11 12 12 12 10 9 7 6 5 5 6 6 5 4 3 2 2 4 4 5 5 5 5 5 6 7 7 5 5 5 5 5 6 5 4 5 6 6 6 6 4 4 5 6 6 7 7 8 7 6
7 6 6 7 8 6 6 7 7 8 9 12 13 11 9 9 9 9 8 6 7 7 7 7 8 9 9 7 7 7 8 10 9 9 9 9 10 10 10 10 8 7 7 6 6 6 6 5 4 3 2 2 3 4 5 6 6 6 7 8 8 7 6 7 7 7 7 8 7 5 5 6 6 7 7 4 4 6 7 7 7 7 8 6 5
7 6 5 5 6 5 4 5 8 9 9 10 13 12 11 10 10 10 9 7 7 8 7 8 8 8 8 6 7 6 7 8 7 8 9 9 9 9 9 8 8 8 7 7 7 7 6 5 4 3 2 0 1 3 4 5 6 7 8 9 8 7 9 10 9 9 9 9 8 6 6 6 7 7 7 4 4 6 6 6 6 6 6 5 5
8 7 6 4 4 4 4 5 8 9 8 9 12 11 11 12 11 10 10 9 8 8 8 8 8 7 7 5 5 5 7 7 7 8 8 9 9 9 9 8 8 8 8 7 7 6 5 5 3 3 2 2 2 3 4 5 6 7 8 8 8 10 12 12 11 11 10 9 8 6 5 6 6 6 6 4 4 5 4 5 5 5 6 6 7
9 7 6 4 3 3 4 5 7 8 7 8 10 11 11 12 12 11 10 10 9 8 7 7 6 5 5 4 4 5 6 6 6 8 8 8 8 8 8 8 8 8 8 7 6 5 4 3 3 3 3 4 4 4 4 5 6 7 7 8 9 11 12 12 11 10 9 7 6 4 4 4 4 4 4 3 2 2 3 4 5 6 8 8 8
8 8 7 5 4 4 4 4 5 6 6 8 9 10 11 12 12 11 10 10 9 9 8 7 5 4 4 4 5 5 6 5 6 7 8 8 8 8 8 8 8 8 7 6 6 5 4 4 4 3 3 4 4 5 5 6 6 7 8 8 9 11 11 10 9 8 7 5 3 2 2 2 2 2 2 2 2 2 3 4 6 6 7 8 8
8 8 7 6 5 4 4 4 4 5 6 8 9 10 11 12 12 12 11 10 9 8 8 7 6 4 4 4 5 6 6 5 5 7 8 8 8 8 8 8 8 8 7 6 6 5 5 4 4 2 2 3 3 4 5 6 6 6 7 8 9 8 7 7 7 6 4 2 1 1 2 1 0 0 1 1 2 2 3 4 6 6 7 7 8
8 8 7 6 6 5 5 4 4 5 6 8 10 10 11 12 12 11 11 10 9 8 8 8 6 5 5 5 5 5 5 4 5 7 7 8 8 8 8 8 8 7 7 6 6 6 6 5 4 4 3 3 3 3 4 5 5 5 6 7 6 5 5 5 5 3 1 0 1 2 2 2 1 1 1 2 2 3 3 4 5 6 7 7 8
8 8 7 7 7 6 5 4 4 6 7 8 9 10 11 11 11 10 9 9 9 8 8 7 7 6 6 6 6 5 4 4 5 7 8 8 8 8 8 8 7 7 7 7 7 7 7 6 5 6 6 5 3 2 3 4 4 5 5 4 3 3 3 3 2 0 1 2 2 2 2 2 2 1 2 2 2 2 3 4 5 6 7 8 9
8 8 7 7 8 7 6 5 5 6 7 8 9 9 10 11 11 10 9 9 9 8 8 8 7 7 6 7 6 5 4 4 6 8 8 8 8 8 8 7 7 6 7 7 8 9 9 8 7 8 8 7 5 2 1 2 3 4 3 2 2 2 1 1 2 2 2 2 2 1 1 1 1 1 1 2 2 3 4 5 6 7 9 10 10
9 8 7 7 7 7 7 6 6 6 7 9 9 9 10 11 10 10 9 8 8 9 8 8 7 7 7 7 7 6 5 6 7 8 8 8 8 7 7 7 6 6 7 7 8 9 9 9 9 10 9 8 6 3 2 1 1 2 2 1 0 0 1 2 3 3 2 2 1 0 0 0 1 1 2 3 3 5 5 7 8 9 10 11 12
10 9 8 6 7 8 7 7 7 6 7 9 9 10 10 10 10 9 8 9 9 9 8 8 7 7 7 8 8 8 7 7 8 8 7 7 7 7 6 6 6 6 7 8 9 9 10 9 10 10 9 9 6 3 4 2 1 0 1 1 0 1 1 2 2 2 1 1 0 1 1 2 2 3 3 4 5 6 7 8 9 10 11 12 13
10 10 9 7 8 8 7 7 7 7 8 8 8 10 10 8 8 8 8 10 10 9 8 7 7 8 8 8 7 8 8 7 8 7 6 6 6 6 6 6 6 7 8 9 9 9 9 9 9 10 9 10 7 3 4 4 2 1 1 0 1 1 1 1 1 1 1 1 2 2 4 4 5 6 6 7 7 8 9 10 11 12 13 14 15
10 10 10 9 9 8 8 8 8 7 8 8 8 9 9 8 8 7 9 11 10 9 8 8 9 9 8 7 6 7 7 7 7 6 6 6 5 6 5 5 6 7 9 9 9 8 9 8 9 9 10 11 8 4 4 4 3 2 1 1 0 1 1 2 2 3 3 4 5 6 7 7 8 9 9 10 10 11 12 13 13 14 15 16 16
10 10 11 11 10 9 9 9 9 9 8 9 9 9 9 9 8 8 10 11 10 9 9 9 9 7 6 5 5 6 6 6 6 6 6 5 5 5 4 5 6 8 9 8 9 8 8 8 8 10 10 12 9 4 4 3 2 2 1 0 1 2 3 4 5 6 7 7 8 9 9 10 11 12 12 13 14 15 15 16 16 17 18 18 18
10 11 12 12 11 10 10 10 10 10 10 10 10 10 10 10 10 11 12 12 11 10 8 7 6 5 4 4 5 5 6 6 6 6 5 5 4 4 3 4 6 8 8 8 8 8 8 8 8 9 10 10 9 4 3 2 1 0 1 2 2 4 5 6 7 8 9 10 11 12 12 12 13 14 15 17 18 18 18 18 19 19 19 19 20
10 11 12 12 11 11 11 10 11 11 11 11 11 10 11 12 13 13 13 13 12 10 7 6 4 3 3 4 5 6 7 6 6 6 5 5 4 2 3 4 6 7 7 7 7 7 7 8 7 8 9 9 8 3 1 1 1 2 3 4 5 6 7 9 9 9 10 12 13 14 14 15 15 16 17 18 19 19 18 17 18 18 17 17 17
11 11 12 12 12 12 11 11 11 12 11 12 11 11 13 15 14 13 13 13 11 8 6 5 3 3 4 5 7 7 7 7 6 5 5 4 3 2 2 3 5 6 6 6 6 6 6 6 6 7 8 8 7 3 0 2 2 3 4 5 7 8 10 11 11 11 13 14 14 14 14 15 15 15 16 16 16 16 15 14 13 13 12 13 13
11 11 12 12 12 12 11 11 11 12 11 11 11 13 15 15 14 13 13 13 10 7 5 4 3 3 5 7 8 8 7 6 5 5 4 3 2 2 1 2 3 4 5 5 6 6 5 5 5 6 7 7 6 4 2 1 3 4 5 6 8 10 12 13 13 13 13 13 12 11 12 12 12 13 13 13 14 14 14 13 11 10 10 11 12
11 11 12 12 12 11 11 11 11 12 11 11 12 14 15 15 14 12 12 12 9 7 6 4 4 3 5 7 8 7 6 5 5 4 4 3 2 1 1 2 3 3 4 4 5 5 5 5 5 5 6 7 6 5 3 2 3 4 5 7 9 12 12 12 11 10 11 10 10 10 9 9 10 12 12 13 13 13 13 12 11 11 11 11 12
12 12 12 12 12 12 11 11 12 12 12 12 13 14 14 13 12 11 11 11 9 8 6 5 5 4 5 7 7 6 5 4 4 3 3 3 2 1 1 1 3 3 3 4 5 6 5 5 5 5 5 5 5 5 4 4 3 4 6 7 9 10 9 8 7 8 9 8 8 8 8 8 9 10 11 11 12 11 12 13 11 11 12 13 13
12 13 13 13 13 12 11 11 12 14 14 13 14 14 13 12 11 10 10 9 10 8 6 6 5 5 6 7 7 5 4 3 3 3 3 3 2 2 2 1 3 3 3 4 6 6 6 6 5 5 5 5 5 6 5 3 3 4 6 6 6 6 6 6 5 5 6 6 6 7 6 7 8 8 9 10 11 10 10 11 11 13 14 15 13
14 15 15 14 13 12 11 12 13 16 16 15 15 15 14 13 10 10 9 8 9 8 6 5 5 6 7 7 6 5 5 4 4 3 3 3 3 2 2 1 1 2 3 4 5 5 6 7 6 5 5 5 6 7 6 4 2 3 3 3 4 4 4 4 4 5 5 5 5 5 5 6 6 7 8 9 10 9 8 9 12 13 14 13 11
14 15 15 14 14 14 13 13 15 17 17 17 16 15 15 14 11 10 10 7 7 8 6 6 6 7 7 7 7 6 6 6 5 4 4 4 4 3 2 1 1 1 2 4 5 5 5 6 7 6 5 4 4 6 7 6 4 2 2 2 2 3 3 2 3 5 5 5 5 4 5 6 6 8 9 9 8 8 8 10 12 12 11 9 8
14 15 15 16 15 16 16 16 16 17 18 18 17 15 15 14 12 11 11 8 7 8 8 7 7 7 7 8 7 7 7 7 6 5 5 5 5 4 3 2 2 1 2 3 4 5 5 5 6 7 6 4 3 5 7 7 6 4 2 2 1 2 2 2 6 5 3 4 3 4 5 5 7 9 10 8 7 8 9 10 11 11 9 7 6
15 16 17 17 16 17 19 19 18 18 19 18 17 16 14 13 12 11 10 8 7 7 7 7 8 8 8 8 8 8 8 8 8 7 5 5 5 5 4 3 2 3 2 3 4 4 4 5 5 6 6 6 5 4 4 6 7 7 4 2 1 2 2 5 6 3 4 5 3 4 6 6 8 9 9 8 8 8 9 10 10 9 7 5 4
16 17 17 18 17 18 20 20 20 19 19 18 18 17 15 14 14 11 9 7 6 6 7 8 8 9 8 8 8 8 8 9 9 8 6 5 5 5 5 4 3 4 4 4 4 4 4 3 4 4 4 5 6 4 4 4 5 6 6 3 2 2 3 5 5 3 5 5 3 5 6 7 9 8 8 9 9 9 10 10 8 6 5 3 1
17 17 17 17 17 19 21 22 21 20 20 19 19 18 16 16 15 12 10 8 7 9 11 10 10 10 9 8 8 8 9 9 9 9 8 7 6 5 5 5 4 5 5 5 4 4 3 3 3 3 3 4 5 4 4 3 3 3 4 3 2 2 2 4 3 4 4 3 4 6 6 8 10 8 9 10 10 10 10 9 7 5 3 1 1
16 17 17 18 19 21 23 23 22 22 21 21 20 19 18 18 16 13 11 11 10 10 12 12 12 12 11 9 8 8 9 9 9 9 10 9 8 7 6 6 5 5 5 4 4 3 3 3 3 3 2 3 3 3 3 3 2 2 3 3 3 2 3 3 3 3 4 4 5 5 6 9 9 8 9 10 10 10 9 8 6 5 3 2 2
16 18 19 18 19 22 24 23 23 22 22 21 21 20 20 19 17 15 13 13 11 10 11 11 12 13 12 12 10 9 9 9 9 9 10 10 10 9 8 7 6 5 5 4 3 3 3 3 3 3 2 2 2 2 2 2 3 3 3 4 4 4 4 2 2 3 4 5 5 5 8 10 8 8 9 10 10 9 8 7 6 6 4 4 5
17 18 18 18 19 21 24 24 23 23 22 22 22 21 21 19 18 17 15 14 13 12 12 11 12 13 12 12 12 11 10 9 9 9 10 10 10 10 8 7 6 5 5 4 4 4 4 3 3 3 3 3 3 2 2 2 3 3 3 3 4 4 4 3 3 4 5 4 5 7 9 10 9 8 9 10 11 9 7 6 5 5 4 5 7
17 17 18 18 18 20 24 25 24 24 23 23 22 22 21 20 19 18 17 15 14 14 13 12 12 13 13 12 12 12 11 9 8 9 9 9 10 10 8 6 6 6 6 6 5 4 4 4 4 4 4 4 4 3 3 3 2 3 3 3 4 4 4 5 5 6 6 5 5 7 9 9 10 9 9 11 11 8 6 5 5 5 5 6 8
Wind_Direction
147 147 140 138 138 140 133 127 121 112 101 100 104 100 100 98 99 108 113 112 109 105 105 106 105 105 102 103 103 103 101 103 109 113 110 106 110 115 117 120 122 118 116 120 123 119 113 111 110 108 104 104 104 103 103 104 104 104 104 105 103 102 103 104 106 108 110 110 109 108 107 106 107 108 108 107 105 105 107 107 102 99 100 103 104
144 142 138 143 143 141 129 122 118 110 103 103 105 101 104 107 107 110 108 104 103 102 103 105 105 103 102 101 101 101 103 107 108 110 110 108 110 113 115 114 116 116 114 119 119 114 113 113 111 109 106 106 105 103 102 101 102 104 104 104 104 103 102 101 104 107 109 110 110 110 110 110 110 110 110 110 108 108 109 107 103 101 103 105 106
136 134 137 147 141 134 126 124 121 114 110 107 108 108 109 109 108 108 105 101 101 104 105 107 108 104 102 101 100 102 105 109 107 109 111 111 110 110 114 111 112 112 111 113 111 109 108 108 107 107 105 103 103 101 101 102 103 103 101 100 101 102 103 105 106 109 112 112 112 111 110 111 110 110 110 111 111 110 110 107 103 103 105 106 106
130 131 138 145 135 131 131 130 123 119 117 111 113 114 114 114 112 107 104 103 104 109 109 107 107 105 103 101 100 102 105 107 107 109 109 110 109 109 113 109 108 110 109 107 104 103 102 103 103 101 100 100 101 100 101 101 100 100 100 99 99 101 104 108 111 114 117 118 116 113 110 110 108 108 109 109 110 110 109 105 103 104 106 107 107
130 132 137 138 129 130 132 128 124 127 124 117 120 121 122 123 117 107 105 108 109 109 107 105 105 104 102 101 100 102 105 105 106 108 108 107 108 111 114 110 107 108 108 106 103 101 102 105 103 100 100 100 102 103 101 99 98 98 99 99 99 99 102 108 113 117 119 123 119 113 112 111 109 108 109 109 110 109 107 105 106 107 109 110 110
130 132 135 134 133 136 136 131 126 126 121 124 129 129 127 124 115 108 111 110 106 103 101 103 107 105 103 102 103 105 105 104 105 107 109 108 111 118 119 112 109 107 107 108 107 108 108 106 102 100 102 102 104 104 101 99 99 99 99 98 98 97 99 105 113 119 120 121 116 112 112 111 112 111 111 110 110 109 108 108 108 110 112 114 112
128 131 133 133 134 136 133 126 122 121 121 129 126 127 126 119 114 113 121 116 108 107 107 109 110 106 102 102 103 105 102 103 107 110 110 110 114 121 117 111 110 107 107 110 111 114 114 107 104 103 104 105 106 103 99 100 101 101 100 97 97 97 98 102 108 115 118 118 113 112 113 112 113 113 114 112 112 112 111 111 111 114 115 116 114
128 130 132 131 130 131 127 123 123 123 121 125 121 126 127 121 116 115 121 119 116 116 119 118 112 107 103 103 102 103 103 105 112 115 111 110 114 116 111 109 110 108 108 112 114 116 116 112 110 109 107 107 107 103 99 100 102 102 99 95 94 97 98 100 105 109 113 112 111 113 113 112 111 113 117 116 116 114 113 111 110 113 113 120 116
130 131 132 130 131 133 130 129 129 129 130 133 132 133 130 120 116 117 119 120 122 121 120 117 110 107 105 105 103 102 106 109 113 114 109 109 113 111 108 106 106 106 109 115 115 116 116 115 116 115 111 106 102 98 99 102 104 102 96 90 88 91 94 97 102 106 111 112 114 115 113 113 112 115 123 122 120 116 112 110 109 110 112 120 118
133 134 134 130 131 133 130 130 127 130 134 135 135 137 129 116 113 114 118 123 124 121 117 114 110 107 106 106 103 101 104 108 111 112 109 111 115 114 116 115 110 108 108 112 115 116 117 117 116 116 114 109 103 98 100 101 103 100 90 84 81 83 86 88 92 99 107 114 118 118 119 121 116 120 131 125 118 111 108 119 131 137 137 137 135
136 135 134 130 129 128 126 124 121 129 132 128 131 134 124 117 115 107 116 124 122 119 117 113 111 110 108 108 105 103 107 107 108 112 110 111 113 114 119 119 117 115 112 111 110 112 116 118 117 116 117 115 109 102 101 100 98 92 83 80 79 80 81 79 82 89 94 102 113 115 117 116 113 121 129 122 117 110 99 111 123 133 143 142 147
138 135 133 128 127 126 125 121 121 130 131 128 128 127 118 113 116 109 111 122 124 121 116 113 113 113 110 108 106 104 109 104 101 107 110 111 112 114 117 115 117 119 119 114 109 113 117 117 116 116 118 116 112 107 105 100 91 83 80 80 78 77 73 70 69 70 74 83 99 106 111 107 111 120 122 121 124 121 112 116 118 125 131 132 145
139 137 135 130 130 128 127 126 125 132 133 130 125 121 118 111 112 112 109 118 125 120 117 114 109 109 107 106 106 104 106 102 98 104 111 109 109 112 113 113 117 118 119 118 117 122 124 120 116 116 118 115 111 109 104 94 82 77 76 72 67 68 65 63 60 57 60 63 70 89 119 113 118 129 125 128 130 137 140 139 147 143 143 148 159
143 142 137 132 134 132 133 130 126 132 137 135 129 122 121 116 111 111 112 117 119 115 115 115 108 105 106 108 109 105 105 102 97 100 103 102 110 115 112 113 117 117 118 117 119 126 131 129 121 119 118 115 112 108 103 89 78 72 66 52 43 56 62 59 57 55 54 51 53 68 118 119 142 147 129 135 137 148 152 155 183 155 187 203 216
149 148 141 137 138 141 143 133 125 130 138 136 130 127 126 119 116 116 114 112 118 120 115 115 112 107 109 113 112 108 107 103 98 98 97 97 114 118 112 113 114 113 113 110 116 126 132 131 122 121 121 121 119 112 109 96 80 68 59 42 36 50 58 62 62 53 50 39 42 48 123 163 216 155 134 169 125 122 185 219 241 235 272 281 264
159 156 148 147 150 149 147 138 130 128 136 138 124 127 138 134 128 125 121 119 126 128 120 117 116 113 116 114 110 108 106 107 109 111 106 103 109 112 106 107 107 107 109 112 120 128 130 128 123 128 132 134 130 124 124 113 98 71 47 28 24 27 36 53 38 358 256 266 330 350 154 196 246 158 150 214 185 184 218 250 264 254 265 272 265
168 164 156 157 157 152 148 145 137 126 124 135 132 132 144 145 136 130 132 139 136 130 126 121 118 117 117 114 113 107 103 107 116 119 116 115 115 109 97 94 98 105 110 116 123 129 128 128 135 144 152 152 145 144 146 137 140 109 22 5 2 356 10 24 12 342 286 277 275 270 204 217 268 195 180 208 222 227 234 249 256 261 263 262 265
172 172 164 157 159 158 158 154 144 133 125 132 151 148 143 143 139 135 139 148 143 137 135 123 120 119 116 117 114 104 101 104 109 112 114 120 124 119 105 96 102 107 108 111 116 126 131 134 145 154 166 175 177 181 187 196 200 209 255 316 338 333 344 358 355 339 334 317 283 270 260 260 286 254 217 213 228 240 245 251 255 264 264 260 266
174 176 165 160 172 168 167 162 147 145 137 132 143 156 148 139 139 145 150 153 147 144 139 125 120 118 115 115 105 99 100 101 99 100 106 117 124 124 123 124 123 115 113 113 110 113 115 118 122 135 159 190 210 221 224 235 237 240 254 281 307 314 327 344 338 332 338 326 291 271 278 293 304 296 269 236 235 247 250 258 261 261 264 266 265
177 176 166 171 184 174 171 168 153 151 143 136 139 148 153 142 140 152 161 160 153 148 143 130 122 115 112 112 105 103 105 103 103 104 107 113 117 121 126 129 129 125 121 115 106 101 100 102 103 116 147 198 224 237 242 249 252 259 270 280 298 310 320 329 326 327 328 326 321 292 292 308 308 308 294 256 240 254 253 256 260 265 271 267 261
188 180 171 178 181 175 174 169 164 158 144 143 142 141 157 158 150 154 161 164 160 153 145 133 124 116 117 119 113 112 112 109 108 111 113 111 111 115 119 122 126 127 126 121 112 107 103 101 99 108 137 212 240 254 258 263 267 275 284 292 303 313 314 318 321 325 325 329 331 311 309 315 309 310 300 267 245 260 261 262 266 269 272 266 263
191 184 176 184 184 178 169 156 156 153 144 144 140 138 158 167 160 154 155 162 159 152 147 136 128 124 125 122 115 117 120 113 108 113 113 112 113 114 117 121 126 126 124 120 112 106 99 94 88 86 86 15 286 286 285 285 287 290 294 300 307 310 310 316 320 323 324 327 327 318 320 317 313 313 304 280 259 265 263 267 275 274 269 270 277
188 188 182 180 185 169 144 142 143 140 137 139 137 139 156 165 164 157 151 158 155 152 155 141 130 127 122 117 115 119 124 117 111 118 118 117 117 117 121 123 123 119 113 109 101 97 90 82 73 60 38 359 330 319 312 306 303 303 303 305 307 306 310 314 317 321 324 326 325 321 324 322 319 317 308 289 269 268 262 264 277 281 276 279 286
188 188 186 180 175 154 132 136 138 134 133 137 135 135 150 159 160 158 152 154 153 154 156 138 125 121 118 121 121 122 131 128 119 122 119 114 111 109 112 111 108 102 98 93 85 76 63 47 20 355 338 328 319 313 306 303 302 302 302 304 305 304 309 314 318 323 326 326 321 320 331 330 324 318 312 293 264 251 247 259 274 277 275 276 281
186 186 185 182 178 162 143 145 144 139 137 139 134 132 144 152 155 156 150 148 152 155 149 136 136 135 138 137 125 131 143 139 122 116 111 106 104 102 101 98 94 89 84 74 60 44 25 6 348 335 321 311 301 293 287 287 289 290 293 295 299 304 311 319 324 326 325 322 315 332 355 342 329 316 309 275 226 213 226 249 268 275 274 272 274
185 185 181 182 186 180 169 166 154 144 140 141 138 139 144 149 155 153 146 146 149 150 146 149 158 159 157 140 124 135 143 135 118 109 104 103 100 98 95 90 84 77 68 55 39 21 13 5 359 359 340 316 293 278 272 273 277 283 288 290 297 309 319 324 326 324 317 313 330 38 54 38 11 247 239 228 204 204 226 245 260 267 268 269 270
185 182 177 180 185 186 178 170 156 145 145 146 149 151 147 150 155 150 146 146 146 149 152 159 162 162 158 141 132 137 137 128 116 109 104 101 97 92 88 82 75 65 51 38 30 23 23 24 32 33 19 2 323 279 266 269 275 281 286 296 309 319 320 320 319 318 308 13 75 87 92 104 132 166 189 207 204 209 232 247 255 258 261 263 267
185 180 177 177 180 183 178 177 171 158 153 152 157 158 150 150 152 148 149 150 151 155 156 160 162 162 158 151 147 139 131 122 109 106 102 99 95 89 83 76 66 52 37 30 28 33 35 35 37 27 18 12 352 288 259 264 276 283 290 309 330 322 319 329 334 81 102 102 97 100 111 127 147 166 188 200 214 228 242 253 257 259 263 267 272
185 179 178 176 175 176 178 183 178 169 162 159 161 158 152 151 152 152 155 159 158 158 160 164 167 163 161 160 153 137 125 111 104 104 103 99 93 86 81 71 55 40 36 31 29 34 38 37 28 20 17 17 15 3 245 249 278 287 296 325 331 323 358 51 97 113 110 113 111 115 131 151 179 196 226 238 250 259 264 265 266 269 270 274 278
183 177 178 176 171 170 174 176 172 171 166 162 162 159 157 155 157 157 155 159 159 160 165 169 169 164 163 161 147 131 117 104 105 108 103 96 90 85 77 65 46 35 38 33 30 33 34 31 22 18 20 17 18 39 73 102 288 287 287 321 306 299 97 113 118 120 116 113 115 122 174 237 249 265 273 278 281 279 279 277 277 278 279 280 282
179 177 178 175 170 170 171 169 167 170 166 166 166 162 161 160 159 156 152 158 160 162 167 170 169 163 159 151 135 123 113 107 111 109 100 92 87 82 73 62 43 34 37 34 30 31 30 24 17 16 14 12 15 44 68 83 106 89 250 270 193 190 140 134 128 133 136 118 90 327 314 314 302 296 294 294 293 289 287 286 285 284 284 285 286
178 178 177 172 170 172 172 170 168 170 168 167 168 164 163 162 158 156 157 159 159 163 169 169 164 157 150 140 128 121 115 114 113 108 99 92 87 80 70 56 41 35 35 33 30 30 29 21 14 10 360 5 24 73 76 82 112 107 157 204 198 220 203 172 179 235 238 286 306 314 312 314 311 305 302 298 296 294 292 290 288 288 288 288 289
176 176 172 169 170 173 172 171 171 171 170 167 167 166 164 163 163 162 161 160 161 165 165 162 157 152 145 134 128 123 119 118 115 110 103 96 91 83 68 47 42 37 32 32 32 31 28 19 10 5 354 3 30 96 96 84 107 106 116 133 193 227 245 246 268 277 284 291 297 305 306 307 307 305 304 301 298 296 295 294 293 292 291 292 293
168 171 171 169 170 174 173 173 174 172 170 167 166 167 165 166 169 166 163 161 161 161 158 157 154 151 146 140 136 131 128 125 119 115 109 105 96 82 65 44 40 36 30 33 34 31 27 19 7 2 357 3 25 90 117 100 110 105 114 209 251 259 271 278 285 288 293 293 294 301 302 302 302 302 303 302 301 299 297 297 297 296 296 297 297
163 167 169 168 171 175 175 174 174 172 171 169 168 168 168 170 171 167 163 160 160 159 159 161 161 165 165 158 152 145 140 132 124 121 117 115 100 74 57 46 40 34 33 37 34 33 29 19 8 2 358 3 19 64 123 125 134 150 270 284 280 280 283 286 290 291 293 296 300 302 301 300 301 301 303 303 303 302 300 298 296 296 296 297 297
166 165 166 168 173 178 178 175 173 173 171 170 171 171 170 171 169 165 163 163 163 165 167 171 178 191 190 177 163 152 144 136 130 129 127 124 107 74 52 45 38 34 38 43 37 35 30 19 9 3 358 3 17 40 133 163 222 251 279 285 283 287 287 286 291 291 292 298 302 302 302 303 304 305 307 306 306 306 304 301 296 293 292 294 299
169 165 165 168 173 178 180 176 174 173 172 173 173 171 170 169 167 166 168 169 170 172 176 181 190 197 188 174 162 153 146 140 137 136 135 130 116 83 47 38 37 33 39 45 40 37 33 22 10 3 1 6 16 28 112 228 243 256 272 277 282 290 292 292 295 295 297 303 303 299 299 303 308 312 312 312 312 315 316 313 305 298 295 299 305
173 170 167 168 171 176 179 176 174 173 173 174 174 172 170 169 168 170 174 176 177 179 182 188 192 183 174 169 160 154 152 146 144 144 142 142 138 119 53 41 36 29 35 40 34 32 30 25 12 3 5 8 15 25 24 255 247 253 264 270 279 289 294 296 297 298 301 304 302 299 300 305 314 317 316 315 316 320 323 322 317 312 309 309 309
173 173 170 169 170 174 176 176 174 173 173 174 173 172 172 172 173 175 180 182 184 185 187 193 192 178 167 168 165 159 158 155 149 152 159 162 158 141 76 54 30 18 33 34 26 28 29 23 14 4 4 5 5 8 2 324 276 257 267 269 276 286 292 294 295 299 301 298 298 302 309 316 322 321 319 319 320 320 321 320 321 319 317 314 310
173 174 174 173 175 177 177 176 175 173 172 173 174 174 174 176 177 182 188 190 191 189 190 194 191 188 175 172 176 170 160 159 157 166 179 177 177 201 214 44 22 16 39 38 28 30 29 19 12 7 5 4 2 0 345 328 306 281 283 281 282 287 289 289 290 295 297 298 304 312 320 323 325 327 326 326 325 321 319 320 322 322 320 315 309
174 175 176 177 178 181 182 180 179 178 176 176 177 178 177 178 182 188 192 192 195 193 195 202 200 198 190 182 188 184 174 184 184 183 192 195 204 218 228 356 26 29 40 39 32 32 28 20 10 5 8 13 16 13 360 333 304 292 292 288 284 281 280 286 287 293 302 309 318 324 329 331 333 335 336 335 332 325 320 320 318 318 316 309 304
176 177 178 179 179 182 187 184 183 185 183 182 182 182 183 182 183 191 193 192 198 201 202 210 212 209 202 196 199 202 204 215 215 208 206 210 222 227 228 254 23 26 27 29 29 27 25 27 23 12 7 14 25 26 20 1 323 320 305 282 274 270 271 274 284 298 309 318 324 330 334 340 345 343 340 337 335 330 322 315 312 315 316 308 299
177 179 180 179 179 182 190 192 188 188 188 189 187 188 189 188 189 194 197 197 205 212 217 226 223 214 211 210 211 214 218 222 224 222 215 217 227 227 221 228 265 337 15 19 20 19 20 27 28 22 10 4 28 33 30 25 5 343 299 285 300 295 269 255 311 312 312 319 324 333 336 340 345 347 346 340 335 334 331 324 318 318 322 317 303
178 181 182 181 182 185 192 195 194 192 192 193 193 194 195 194 197 204 207 212 220 227 235 237 227 214 213 217 218 220 219 220 223 224 220 220 220 218 221 226 248 275 334 358 6 11 10 14 19 21 15 5 20 27 31 33 24 12 321 302 321 309 299 348 341 333 347 346 338 347 346 343 345 350 352 346 340 340 339 335 328 323 321 317 309
184 187 186 184 186 188 192 195 197 198 197 197 197 198 198 198 202 209 214 220 227 235 237 229 219 214 216 218 220 222 219 218 222 223 222 221 217 216 223 228 253 276 302 338 350 348 349 356 3 15 19 13 10 11 25 35 34 38 32 359 321 317 340 349 342 341 353 352 352 351 353 352 348 351 355 352 348 344 343 341 338 335 325 315 311
190 191 191 189 188 188 192 196 199 202 203 201 200 200 201 202 204 205 205 209 218 229 228 218 212 212 214 215 217 220 218 220 224 224 224 223 220 220 225 231 251 272 285 302 319 325 331 343 350 2 16 16 11 6 12 27 37 44 46 43 9 336 333 338 338 328 331 340 343 340 350 354 349 352 357 354 350 345 346 348 345 343 338 322 312
191 190 192 193 191 191 194 196 200 203 205 205 202 202 205 207 208 206 206 209 216 232 236 228 218 216 217 217 218 221 220 220 225 228 226 224 225 227 233 240 251 267 278 289 302 314 322 326 334 345 359 12 17 11 2 8 21 26 27 32 22 354 324 323 326 324 319 323 332 333 344 351 349 354 356 354 351 347 349 350 345 340 344 354 357
191 187 192 194 194 197 198 198 200 203 204 206 205 205 208 210 212 211 215 222 225 236 243 238 231 227 227 225 224 226 226 223 225 230 229 228 230 233 241 251 261 272 278 286 294 300 311 311 315 328 339 358 12 11 359 353 341 348 356 349 349 348 332 316 304 312 315 316 324 330 339 344 347 353 354 352 352 350 349 350 352 350 350 6 14
191 189 192 194 196 200 202 201 202 204 205 207 207 209 211 213 216 217 222 231 235 241 246 245 240 235 231 231 231 230 231 230 230 233 232 231 233 237 246 258 266 276 279 280 283 282 284 291 301 311 309 313 332 340 349 341 327 328 338 340 338 329 320 303 265 283 303 314 321 329 335 338 342 349 351 351 352 351 348 350 359 3 8 20 18
194 193 193 193 195 199 203 204 204 205 207 208 209 210 213 215 219 223 227 234 240 243 245 245 244 238 232 232 234 232 231 234 236 237 236 234 235 238 245 256 264 269 268 266 273 276 271 276 290 291 282 280 290 292 294 312 325 322 322 327 326 319 313 301 289 301 308 303 306 319 331 336 335 340 349 352 352 353 352 354 1 7 21 25 17
194 192 192 193 194 197 203 206 207 208 208 208 210 211 213 217 222 228 232 234 237 240 238 235 236 234 228 228 231 231 231 233 235 238 239 236 235 235 238 249 259 262 260 261 267 271 267 264 272 279 278 270 270 275 278 283 300 306 303 294 294 299 301 302 307 315 313 308 311 318 327 333 328 328 342 349 350 351 356 2 8 16 24 17 8